Regional Weather Roundup
Issued by NWS

Home | Current Version | Previous Version | Graphics & Text | Print | Product List | Glossary On
Versions: 1 2 3 4 5 6 7 8 9 10 11 12 13 14 15 16 17 18 19 20 21 22 23 24 25 26 27 28 29 30 31 32 33 34 35 36 37 38 39 40 41 42 43 44 45 46 47 48 49 50
000
ASUS43 KMKX 251711
RWRWI

WISCONSIN REGIONAL WEATHER ROUNDUP
NATIONAL WEATHER SERVICE MILWAUKEE/SULLIVAN WI
1200 PM CDT MON SEP 25 2017

NOTE: "FAIR" INDICATES FEW OR NO CLOUDS BELOW 12,000 FEET WITH NO
SIGNIFICANT WEATHER AND/OR OBSTRUCTIONS TO VISIBILITY.

WIZ001-002-006>008-014>016-023>028-251800-
NORTHWEST WISCONSIN

CITY           SKY/WX    TMP DP  RH WIND       PRES   REMARKS
SUPERIOR ARPT  CLOUDY    57  53  86 W3        30.03R
ASHLAND        CLOUDY    63  58  83 NW6       30.01S
HAYWARD        CLOUDY    64  60  87 VRB3      30.01R
SIREN          CLOUDY    58  56  90 N7        30.00F
CUMBERLAND     CLOUDY    63  61  94 N8        29.99F
RICE LAKE      CLOUDY    68  63  84 CALM      30.00F
CHETEK         CLOUDY    73  66  78 NW5       29.97F
LADYSMITH      PTSUNNY   76  64  65 CALM      29.99F
EAU CLAIRE     MOSUNNY   79  64  60 NE5       29.94F HX  81
MENOMONIE      PTSUNNY   76  66  71 W5        29.96F
NEW RICHMOND   CLOUDY    62  61  96 N8        29.99F
OSCEOLA        CLOUDY    60  60 100 N5        30.02S
$$

WIZ003>005-009-010-017-018-251800-
NORTH CENTRAL WISCONSIN

CITY           SKY/WX    TMP DP  RH WIND       PRES   REMARKS
MANITOWISH WTR NOT AVBL
ARBOR VITAE    PTSUNNY   77  66  68 CALM      29.99F
WOODRUFF       PTSUNNY   77  66  68 CALM      29.99F
RHINELANDER    MOSUNNY   79  64  60 CALM      30.00F HX  81
EAGLE RIVER    MOSUNNY   77  61  57 CALM      30.00F
LAND O LAKES   MOSUNNY   78  62  57 CALM      30.02S HX  80
PHILLIPS       CLOUDY    75  65  70 SW3       29.99S
TOMAHAWK       MOSUNNY   78  64  61 CALM      29.99F HX  80
MEDFORD        MOSUNNY   78  64  62 SE5       29.98S HX  80
MERRILL        MOSUNNY   79  66  63 CALM      29.98F HX  81
$$

WIZ029-030-035-036-043>047-251800-
CENTRAL WISCONSIN

CITY           SKY/WX    TMP DP  RH WIND       PRES   REMARKS
WAUSAU         SUNNY     80  64  58 VRB3      29.97F HX  82
MOSINEE        MOSUNNY   81  64  57 S6        30.00S HX  82
MARSHFIELD     MOSUNNY   81  63  54 S6        29.97F HX  82
STEVENS POINT  SUNNY     83  63  51 SW7       29.98F HX  84
WAUPACA        SUNNY     86  65  49 CALM      29.98F HX  88
WAUTOMA        NOT AVBL
WISC RAPIDS    SUNNY     85  65  51 SW8       29.97F HX  86
CAMP DOUGLAS   PTSUNNY   84  66  54 SE7       29.95F HX  86
$$

WIZ011>013-019>022-031-037>040-048>050-251800-
NORTHEAST WISCONSIN

CITY           SKY/WX    TMP DP  RH WIND       PRES   REMARKS
ANTIGO         SUNNY     81  65  58 S6        30.00F HX  83
SHAWANO        MOSUNNY   83  65  54 CALM      29.97F HX  85
OCONTO         PTSUNNY   77  66  68 SE6       29.97F
STURGEON BAY   CLOUDY    82  66  58 SE5       30.00S HX  84
GREEN BAY      SUNNY     85  64  49 S3        29.98F HX  86
MANITOWOC      SUNNY     78  69  73 SE9       30.00S HX  80
APPLETON       MOSUNNY   84  61  45 SE5       29.97F HX  84
CLINTONVILLE   MOSUNNY   84  61  45 W5        29.98F HX  84
OSHKOSH        SUNNY     84  65  52 S5        29.98F HX  86
$$

WIZ032>034-041-042-053>061-251800-
SOUTHWEST WISCONSIN

CITY           SKY/WX    TMP DP  RH WIND       PRES   REMARKS
LA CROSSE      MOSUNNY   83  65  54 S7        29.93F HX  85
SPARTA         MOSUNNY   83  66  55 SW3       29.95F HX  85
VIROQUA        MOSUNNY   83  67  56 S6        29.98S HX  86
BOSCOBEL       MOSUNNY   88  66  48 VRB3      29.95F HX  90
PRAIRIE DU CHI MOSUNNY   84  63  47 CALM      29.94F HX  85
PLATTEVILLE    SUNNY     88  63  42 S9        29.98S HX  89
$$

WIZ056-057-062-063-064-067-068-251800-
SOUTH CENTRAL WISCONSIN

CITY           SKY/WX    TMP DP  RH WIND       PRES   REMARKS
REEDSBURG      SUNNY     85  65  51 SE5       29.96F HAZE    HX  87
BARABOO/DELLS  SUNNY     84  62  46 S6        29.97F HX  85
LONE ROCK      SUNNY     86  66  51 CALM      29.96F HX  88
MINERAL POINT  SUNNY     88  63  42 SE7       29.99F HX  88
MADISON        SUNNY     86  65  49 SE7       29.98F HX  88
MIDDLETON      SUNNY     88  62  40 SW7       29.99F HX  88
WATERTOWN      SUNNY     85  64  49 SW3       29.99F HX  87
MONROE         SUNNY     86  59  39 S7        29.99F HX  85
JANESVILLE     SUNNY     88  59  37 S6        29.98F HX  87
$$

WIZ051-052-058>065-066-070>072-251800-
SOUTHEAST WISCONSIN

CITY           SKY/WX    TMP DP  RH WIND       PRES   REMARKS
MILWAUKEE      MOSUNNY   85  66  53 SE9       29.99F HX  87
WAUKESHA       SUNNY     84  57  39 W5        30.01F HX  83
MILWAUKEE/TIMM SUNNY     88  52  29 S6        30.00F HX  85
RACINE         SUNNY     81  66  60 S7        30.01F HX  83
BURLINGTON     SUNNY     89  62  40 SE6       29.99F HX  89
KENOSHA        SUNNY     89  60  37 SW3       30.00F HX  89
FOND DU LAC    SUNNY     85  62  46 S3        29.99F HX  85
SHEBOYGAN      SUNNY     86  69  56 SE8       29.99S HX  90
WEST BEND        N/A     86  55  35 S5        30.00S HX  84
JUNEAU         SUNNY     82  65  56 E5        30.01S HX  84
$$

LSZ147-162-251800-
LAKE SUPERIOR

STATION/POSITION TIME  TEMP    WIND        PRES    WAVE
                       AIR SEA DIR/SP/G            HT/PER
                 (UTC) (F)     (DEG/KT/KT) (MB)    (FT/S)
W MID LAKE BUOY  1650   57 56  260/  8/ 10 1015.1R   1/ 3
DEVILS ISLAND    1700   60     270/  7/  8 1016.3R
PORT WING        1540   65     280/  8/ 10 1016.6
SAXON HARBOR     1640   63     320/  6/  7 1015.6R
$$

LMZ867-665-643>646-251800-
LAKE MICHIGAN

STATION/POSITION TIME  TEMP    WIND        PRES    WAVE
                       AIR SEA DIR/SP/G            HT/PER
                 (UTC) (F)     (DEG/KT/KT) (MB)    (FT/S)
S GREEN BAY BUOY 1600   71 70  170/  2/  2 1015.3F
N MID LAKE BUOY  1650   69 67  180/ 10/ 12 1016.0F   1/ 4
NORTHPORT PIER   1640   76     150/  6/  8 1015.2F
KEWAUNEE LAKESHO 1642   67     170/  4/  5 1015.0F
SHEBOYGAN LAKESH 1700   71     170/ 13/ 13 1015.1F
PORT WASHINGTON  1640   78     180/  4/  6 1016.6F
ATWATER BUOY     1609   68 61  210/  4/  4 1016.1F
MILWAUKEE LAKESH 1650   67     140/ 11/ 12   N/A
S MID LAKE BUOY  1650   72 71  140/ 10/ 10 1016.4F   1/ 3
KENOSHA   LAKESH 1700   74     160/ 11/ 12 1015.2
$$

TC  - TEMPERATURE IN CELSIUS
VSB - VISIBILITY IN STATUTE MILES
WCI - WIND CHILL INDEX
HX  - HEAT INDEX





USA.gov is the U.S. government's official web portal to all federal, state and local government web resources and services.